Home   Weather   Birmingham   Past weeks

Flag for USA Past Weather in Birmingham, Alabama, USA — Yesterday and Last 2 Weeks

Now
49 °F

Drizzle. Fog.


Feels Like: 46 °F
Forecast: 50 / 58 °F
Wind: 7 mph from Northeast

Location: Birmingham International Airport

Current Time: Dec 5, 2016 at 4:39:18 am

Latest Report: Dec 5, 2016 at 3:53 am


Visibility: 1 mi

Pressure: 29.99 "Hg

Humidity: 100%

Dew Point: 49 °F

Location of BirminghamLocation

Past Weather in Birmingham — Graph

°F

Birmingham Temperature Yesterday

Maximum temperature yesterday: 52 °F (at 2:53 pm)
Minimum temperature yesterday: 45 °F (at 12:53 am)
Average temperature yesterday: 49 °F

High & Low Weather Summary for the Past Weeks

 TemperatureHumidityPressure
High73 °F (Nov 24, 12:53 pm)100% (Nov 25, 6:53 am)30.40 "Hg (Nov 25, 6:53 am)
Low30 °F (Nov 21, 5:53 am)10% (Nov 21, 12:53 pm)29.59 "Hg (Nov 28, 6:53 pm)
Average52 °F64%30.13 "Hg
* Reported Nov 20 3:53 am — Dec 5 3:04 am, Birmingham, Weather by CustomWeather, © 2016

Note: Actual official high and low records may vary slightly from our data, if they occured in-between our weather recording intervals... More about our weather records

Advertising

Birmingham Weather History for the Previous 24 Hours

Scroll right to see more
 ConditionsComfort  
Time TempWeatherWind HumidityBarometerVisibility
3:04 am
Mon, Dec 5
50 °FLow clouds.6 mph100%30.01 "Hg1 mi
2:53 am50 °FLow clouds.5 mph100%30.02 "Hg1 mi
1:53 am50 °FLow clouds.5 mph100%30.02 "Hg1 mi
12:53 am50 °FFog.3 mph100%29.99 "Hg1 mi
11:53 pm
Sun, Dec 4
50 °FDrizzle. Low clouds.3 mph100%30.00 "Hg1 mi
10:53 pm50 °FDrizzle. Fog.No wind100%30.03 "Hg1 mi
9:53 pm51 °FDrizzle. Fog.No wind100%30.03 "Hg1 mi
8:53 pm51 °FDrizzle. Fog.No wind100%30.03 "Hg3 mi
7:53 pm51 °FFog.3 mph100%30.01 "Hg6 mi
6:53 pm51 °FLow clouds.6 mph100%29.99 "Hg8 mi
5:53 pm52 °FLow clouds.No wind97%29.99 "Hg8 mi
4:53 pm52 °FLow clouds.3 mph97%29.98 "Hg8 mi
3:53 pm52 °FLight rain. Low clouds.3 mph97%29.96 "Hg10 mi
2:53 pm52 °FDrizzle. Fog.5 mph97%29.95 "Hg5 mi
2:01 pm51 °FDrizzle. Fog.10 mph100%29.95 "Hg2 mi
12:53 pm51 °FLow clouds.5 mph96%29.96 "Hg7 mi
11:53 am50 °FFog.7 mph96%29.98 "Hg6 mi
10:53 am49 °FFog.6 mph97%30.04 "Hg6 mi
9:53 am48 °FLight rain. Low clouds.3 mph96%30.06 "Hg9 mi
8:53 am47 °FLight rain. Mostly cloudy.8 mph97%30.04 "Hg10 mi
7:53 am47 °FLight rain. Fog.6 mph97%30.04 "Hg6 mi
6:53 am47 °FLight rain. Mostly cloudy.9 mph93%30.05 "Hg10 mi
6:04 am46 °FMostly cloudy.8 mph96%30.03 "Hg9 mi
4:53 am46 °FMostly cloudy.8 mph93%30.04 "Hg10 mi
Weather by CustomWeather, © 2016

See weather overviewHow to use our weather pages